GW7652 Weather Reports


time (UTC)temp
C
wind
direction
speed
KPH
gust
KPH
rain 1hr
cm
rain 24hr
cm
rain mn
cm
humidity
%
barometer
mb
20260902224037 28 13 0.0 0.0 0.00 0.00 0.00 28 1013.5
20260902223536 28 351 0.0 0.0 0.00 0.00 0.00 28 1013.5
20260902223037 28 350 0.0 0.0 0.00 0.00 0.00 28 1013.5
20260902222537 28 20 0.0 0.0 0.00 0.00 0.00 29 1013.5
20260902222039 28 20 0.0 0.0 0.00 0.00 0.00 28 1013.5
20260902221537 28 19 0.0 0.0 0.00 0.00 0.00 28 1013.5
20260902221036 28 72 0.0 0.0 0.00 0.00 0.00 27 1013.5
20260902220536 28 68 0.0 0.0 0.00 0.00 0.00 28 1013.5
20260902220036 28 75 1.6 1.6 0.00 0.00 0.00 28 1013.5
20260902215537 28 71 0.0 0.0 0.00 0.00 0.00 28 1013.5
20260902215037 29 68 0.0 0.0 0.00 0.00 0.00 28 1013.5
20260902214536 29 5 3.2 3.2 0.00 0.00 0.00 27 1013.5
20260902214037 29 64 0.0 1.6 0.00 0.00 0.00 27 1013.5
20260902213536 29 85 4.8 4.8 0.00 0.00 0.00 27 1013.5
20260902213036 29 72 3.2 3.2 0.00 0.00 0.00 28 1013.5
20260902212537 29 78 0.0 0.0 0.00 0.00 0.00 28 1013.5
20260902212037 29 86 0.0 1.6 0.00 0.00 0.00 28 1013.9
20260902211536 29 87 0.0 0.0 0.00 0.00 0.00 28 1013.5
20260902211037 29 65 0.0 0.0 0.00 0.00 0.00 32 1013.9
20260902210536 28 173 0.0 0.0 0.00 0.00 0.00 36 1013.5
20260902210036 28 173 0.0 0.0 0.00 0.00 0.00 37 1013.9
20260902205537 28 173 0.0 0.0 0.00 0.00 0.00 36 1013.5
20260902205036 29 173 0.0 0.0 0.00 0.00 0.00 36 1013.5
20260902204537 29 173 0.0 0.0 0.00 0.00 0.00 36 1013.9
20260902204036 29 167 1.6 1.6 0.00 0.00 0.00 35 1013.9
20260902203536 30 119 0.0 0.0 0.00 0.00 0.00 36 1013.5
20260902203036 30 119 0.0 0.0 0.00 0.00 0.00 34 1013.5
20260902202538 30 119 0.0 0.0 0.00 0.00 0.00 34 1013.9
20260902202037 30 119 0.0 0.0 0.00 0.00 0.00 34 1013.5
20260902201536 30 119 0.0 0.0 0.00 0.00 0.00 35 1013.5
20260902201037 30 119 0.0 0.0 0.00 0.00 0.00 34 1013.5
20260902200536 30 119 0.0 0.0 0.00 0.00 0.00 35 1013.5
20260902200038 30 19 0.0 0.0 0.00 0.00 0.00 34 1013.9
20260902195536 30 19 0.0 0.0 0.00 0.00 0.00 33 1013.9
20260902195038 30 19 0.0 0.0 0.00 0.00 0.00 33 1013.9
20260902194536 30 17 0.0 0.0 0.00 0.00 0.00 33 1013.9
20260902194036 30 16 0.0 0.0 0.00 0.00 0.00 35 1013.9
20260902193536 30 16 0.0 0.0 0.00 0.00 0.00 37 1013.9
20260902193037 30 16 0.0 0.0 0.00 0.00 0.00 36 1013.9
20260902192537 30 14 0.0 0.0 0.00 0.00 0.00 35 1013.9
20260902192036 30 26 0.0 0.0 0.00 0.00 0.00 36 1013.9
20260902191537 30 99 0.0 0.0 0.00 0.00 0.00 36 1013.9
20260902191037 30 99 0.0 0.0 0.00 0.00 0.00 36 1013.5
20260902190536 30 99 0.0 0.0 0.00 0.00 0.00 36 1013.9
20260902190039 30 99 0.0 0.0 0.00 0.00 0.00 36 1013.9
20260902185538 31 100 0.0 0.0 0.00 0.00 0.00 36 1013.9
20260902185036 31 121 0.0 0.0 0.00 0.00 0.00 35 1013.9
20260902184536 31 273 0.0 0.0 0.00 0.00 0.00 35 1013.5
20260902184037 31 283 1.6 3.2 0.00 0.00 0.00 35 1013.9
20260902183536 31 10 1.6 1.6 0.00 0.00 0.00 35 1013.5
20260902183036 31 1 4.8 4.8 0.00 0.00 0.00 35 1013.5
20260902182538 31 323 4.8 4.8 0.00 0.00 0.00 35 1013.5
20260902182036 31 294 4.8 8.0 0.00 0.00 0.00 35 1013.5
20260902181536 31 234 0.0 0.0 0.00 0.00 0.00 35 1013.5
20260902181037 31 228 1.6 3.2 0.00 0.00 0.00 35 1013.5
20260902180540 31 249 1.6 1.6 0.00 0.00 0.00 35 1013.2
20260902180036 31 265 1.6 1.6 0.00 0.00 0.00 35 1013.5
20260902175536 31 298 6.4 9.7 0.00 0.00 0.00 35 1013.2
20260902175037 31 279 6.4 8.0 0.00 0.00 0.00 35 1013.2
20260902174536 31 288 8.0 11.3 0.00 0.00 0.00 35 1013.2
20260902174037 31 300 1.6 1.6 0.00 0.00 0.00 35 1012.9
20260902173537 31 291 4.8 4.8 0.00 0.00 0.00 35 1012.9
20260902173037 32 313 6.4 11.3 0.00 0.00 0.00 35 1013.2
20260902172538 32 210 4.8 9.7 0.00 0.00 0.00 35 1012.9
20260902172037 32 259 4.8 4.8 0.00 0.00 0.00 34 1012.9
20260902171538 32 295 4.8 8.0 0.00 0.00 0.00 34 1012.9
20260902171036 32 314 6.4 8.0 0.00 0.00 0.00 33 1012.9
20260902170537 32 306 4.8 4.8 0.00 0.00 0.00 33 1012.5
20260902170037 32 337 4.8 4.8 0.00 0.00 0.00 31 1012.9
20260902165536 32 328 4.8 4.8 0.00 0.00 0.00 30 1012.9
20260902165036 33 297 4.8 8.0 0.00 0.00 0.00 28 1012.5
20260902164537 33 299 1.6 1.6 0.00 0.00 0.00 21 1012.5
20260902164037 33 317 1.6 3.2 0.00 0.00 0.00 21 1012.5
20260902163536 33 341 0.0 0.0 0.00 0.00 0.00 21 1012.5
20260902163037 33 28 0.0 0.0 0.00 0.00 0.00 21 1012.5
20260902162537 33 29 0.0 0.0 0.00 0.00 0.00 21 1012.2
20260902162037 33 29 0.0 0.0 0.00 0.00 0.00 21 1012.2
20260902161536 33 29 0.0 0.0 0.00 0.00 0.00 21 1012.2
20260902161038 33 29 0.0 0.0 0.00 0.00 0.00 20 1012.2
20260902160538 33 24 0.0 0.0 0.00 0.00 0.00 20 1012.2
20260902160037 33 30 0.0 0.0 0.00 0.00 0.00 20 1012.2
20260902155536 33 354 1.6 1.6 0.00 0.00 0.00 19 1012.2
20260902155037 34 84 0.0 0.0 0.00 0.00 0.00 19 1012.2
20260902154536 34 27 4.8 4.8 0.00 0.00 0.00 19 1012.2
20260902154037 34 8 0.0 0.0 0.00 0.00 0.00 19 1011.9
20260902153536 34 10 1.6 1.6 0.00 0.00 0.00 19 1012.2
20260902153036 34 45 4.8 4.8 0.00 0.00 0.00 19 1012.5
20260902152537 34 101 1.6 3.2 0.00 0.00 0.00 19 1012.5
20260902152037 35 31 6.4 9.7 0.00 0.00 0.00 19 1012.2
20260902151537 35 82 3.2 3.2 0.00 0.00 0.00 19 1012.5
20260902151037 35 24 1.6 3.2 0.00 0.00 0.00 19 1012.2
20260902150537 35 356 0.0 1.6 0.00 0.00 0.00 19 1012.2
20260902150036 35 72 3.2 4.8 0.00 0.00 0.00 19 1012.5
20260902145537 35 67 6.4 8.0 0.00 0.00 0.00 19 1012.5
20260902145037 35 86 4.8 8.0 0.00 0.00 0.00 19 1012.5
20260902144538 35 76 6.4 8.0 0.00 0.00 0.00 19 1012.5
20260902144038 35 68 9.7 11.3 0.00 0.00 0.00 19 1012.5
20260902143537 35 105 3.2 3.2 0.00 0.00 0.00 18 1012.5
20260902143037 35 116 3.2 3.2 0.00 0.00 0.00 18 1012.5
20260902142537 35 76 3.2 4.8 0.00 0.00 0.00 18 1012.9
20260902142037 35 121 4.8 3.2 0.00 0.00 0.00 18 1012.5
20260902141537 35 59 3.2 3.2 0.00 0.00 0.00 19 1012.5
20260902141036 35 57 4.8 4.8 0.00 0.00 0.00 18 1012.9
20260902140537 35 127 6.4 9.7 0.00 0.00 0.00 18 1012.5
20260902140038 35 50 4.8 8.0 0.00 0.00 0.00 18 1012.9
20260902135537 35 74 3.2 3.2 0.00 0.00 0.00 18 1012.5
20260902135038 36 127 3.2 3.2 0.00 0.00 0.00 18 1012.9
20260902134536 35 144 1.6 3.2 0.00 0.00 0.00 18 1012.5
20260902134037 35 82 4.8 4.8 0.00 0.00 0.00 18 1012.9
20260902133537 35 127 9.7 11.3 0.00 0.00 0.00 18 1012.5
20260902133037 35 67 6.4 8.0 0.00 0.00 0.00 18 1012.5
20260902132536 35 33 1.6 1.6 0.00 0.00 0.00 18 1012.9
20260902132036 35 46 6.4 8.0 0.00 0.00 0.00 19 1012.9
20260902131536 35 123 3.2 3.2 0.00 0.00 0.00 18 1012.9
20260902131037 35 97 9.7 9.7 0.00 0.00 0.00 18 1012.9
20260902130538 35 93 6.4 9.7 0.00 0.00 0.00 18 1012.9
20260902130037 35 123 9.7 11.3 0.00 0.00 0.00 19 1012.9
20260902125537 35 99 4.8 4.8 0.00 0.00 0.00 19 1012.9
20260902125036 36 352 3.2 3.2 0.00 0.00 0.00 18 1012.9
20260902124536 35 87 1.6 0.0 0.00 0.00 0.00 18 1013.2
20260902124037 35 108 8.0 8.0 0.00 0.00 0.00 18 1013.2
20260902123536 35 100 4.8 4.8 0.00 0.00 0.00 18 1013.2
20260902123038 36 60 3.2 3.2 0.00 0.00 0.00 18 1013.2
20260902122536 36 87 3.2 3.2 0.00 0.00 0.00 18 1013.2
20260902122036 36 135 1.6 3.2 0.00 0.00 0.00 18 1013.2
20260902121537 36 108 0.0 0.0 0.00 0.00 0.00 18 1013.2
20260902121037 35 101 4.8 8.0 0.00 0.00 0.00 19 1012.9
20260902120536 35 34 6.4 12.9 0.00 0.00 0.00 20 1013.2
20260902120037 36 57 6.4 12.9 0.00 0.00 0.00 19 1013.2
20260902115538 35 66 6.4 9.7 0.00 0.00 0.00 20 1013.5
20260902115038 36 105 4.8 9.7 0.00 0.00 0.00 19 1013.5
20260902114536 36 226 0.0 0.0 0.00 0.00 0.00 19 1013.5
20260902114038 35 276 1.6 1.6 0.00 0.00 0.00 20 1013.5
20260902113537 35 335 1.6 3.2 0.00 0.00 0.00 20 1013.5
20260902113036 35 119 8.0 9.7 0.00 0.00 0.00 20 1013.5
20260902112537 35 115 4.8 8.0 0.00 0.00 0.00 20 1013.9
20260902112037 35 27 3.2 4.8 0.00 0.00 0.00 21 1013.9
20260902111538 35 76 11.3 11.3 0.00 0.00 0.00 20 1013.9
20260902111036 35 91 9.7 12.9 0.00 0.00 0.00 20 1013.9
20260902110536 35 62 1.6 3.2 0.00 0.00 0.00 21 1013.9
20260902110037 35 2 1.6 1.6 0.00 0.00 0.00 20 1013.9
20260902105537 35 62 4.8 4.8 0.00 0.00 0.00 21 1013.9
20260902105036 35 134 8.0 9.7 0.00 0.00 0.00 20 1014.2
20260902104538 35 143 4.8 4.8 0.00 0.00 0.00 20 1013.9
20260902104036 34 268 3.2 3.2 0.00 0.00 0.00 21 1014.2
20260902103536 34 98 6.4 8.0 0.00 0.00 0.00 21 1014.2
20260902103037 34 77 4.8 4.8 0.00 0.00 0.00 22 1014.2
20260902102536 35 121 4.8 4.8 0.00 0.00 0.00 21 1014.6
20260902102036 35 140 4.8 4.8 0.00 0.00 0.00 21 1014.2
20260902101536 35 357 4.8 4.8 0.00 0.00 0.00 21 1014.2
20260902101036 35 108 4.8 4.8 0.00 0.00 0.00 22 1014.2
20260902100537 33 118 0.0 0.0 0.00 0.00 0.00 22 1014.6
20260902100036 33 80 3.2 3.2 0.00 0.00 0.00 22 1014.2
20260902095538 34 109 11.3 14.5 0.00 0.00 0.00 22 1014.6
20260902095036 34 212 0.0 0.0 0.00 0.00 0.00 23 1014.6
20260902094536 33 360 1.6 1.6 0.00 0.00 0.00 23 1014.6
20260902094037 33 102 4.8 9.7 0.00 0.00 0.00 23 1014.6
20260902093536 33 78 1.6 3.2 0.00 0.00 0.00 23 1014.9
20260902093036 33 94 8.0 9.7 0.00 0.00 0.00 24 1014.9
20260902092537 33 99 8.0 11.3 0.00 0.00 0.00 25 1014.9
20260902092037 33 46 0.0 0.0 0.00 0.00 0.00 25 1014.9
20260902091536 33 121 3.2 3.2 0.00 0.00 0.00 25 1014.9
20260902091036 33 36 3.2 3.2 0.00 0.00 0.00 25 1014.9
20260902090537 33 68 4.8 4.8 0.00 0.00 0.00 26 1015.2
20260902090036 33 91 4.8 4.8 0.00 0.00 0.00 25 1014.9
20260902085537 33 111 6.4 8.0 0.00 0.00 0.00 25 1015.2
20260902085036 33 198 1.6 3.2 0.00 0.00 0.00 25 1015.2
20260902084536 33 93 3.2 3.2 0.00 0.00 0.00 24 1015.2
20260902084036 33 14 0.0 0.0 0.00 0.00 0.00 26 1015.2
20260902083536 33 50 0.0 1.6 0.00 0.00 0.00 26 1015.2
20260902083038 32 163 1.6 1.6 0.00 0.00 0.00 27 1015.2
20260902082537 33 84 3.2 4.8 0.00 0.00 0.00 27 1015.2
20260902082038 32 221 0.0 0.0 0.00 0.00 0.00 27 1015.6
20260902081537 32 66 4.8 3.2 0.00 0.00 0.00 28 1015.2
20260902081037 32 65 3.2 3.2 0.00 0.00 0.00 27 1015.2
20260902080537 32 96 1.6 1.6 0.00 0.00 0.00 29 1015.6
20260902080037 32 134 1.6 1.6 0.00 0.00 0.00 29 1015.6
20260902075537 32 80 4.8 3.2 0.00 0.00 0.00 30 1015.6
20260902075039 32 22 1.6 1.6 0.00 0.00 0.00 30 1015.2
20260902074537 31 75 3.2 3.2 0.00 0.00 0.00 31 1015.2
20260902074037 31 72 3.2 4.8 0.00 0.00 0.00 30 1015.6
20260902073536 31 110 4.8 8.0 0.00 0.00 0.00 30 1015.6
20260902073037 31 71 1.6 1.6 0.00 0.00 0.00 32 1015.6
20260902072537 31 62 4.8 9.7 0.00 0.00 0.00 30 1015.6
20260902072037 31 96 3.2 3.2 0.00 0.00 0.00 31 1015.6
20260902071537 31 63 8.0 9.7 0.00 0.00 0.00 32 1015.2
20260902071037 30 96 6.4 8.0 0.00 0.00 0.00 32 1015.2
20260902070537 30 92 4.8 4.8 0.00 0.00 0.00 34 1015.6
20260902070036 31 121 9.7 11.3 0.00 0.00 0.00 33 1015.6
20260902065538 31 30 1.6 1.6 0.00 0.00 0.00 32 1015.2
20260902065037 30 31 4.8 4.8 0.00 0.00 0.00 33 1015.2
20260902064536 30 78 3.2 3.2 0.00 0.00 0.00 33 1015.2
20260902064036 30 38 3.2 4.8 0.00 0.00 0.00 33 1015.2
20260902063537 30 57 4.8 4.8 0.00 0.00 0.00 34 1015.6
20260902063036 30 102 4.8 4.8 0.00 0.00 0.00 34 1015.6
20260902062536 30 57 3.2 3.2 0.00 0.00 0.00 34 1015.2
20260902062036 30 46 4.8 4.8 0.00 0.00 0.00 35 1015.2
20260902061538 30 89 4.8 4.8 0.00 0.00 0.00 34 1015.2
20260902061037 30 127 4.8 3.2 0.00 0.00 0.00 34 1015.2
20260902060536 30 25 1.6 1.6 0.00 0.00 0.00 33 1015.6
20260902060037 29 66 1.6 1.6 0.00 0.00 0.00 34 1015.6
20260902055537 28 67 3.2 3.2 0.00 0.00 0.00 34 1015.6
20260902055036 28 64 1.6 1.6 0.00 0.00 0.00 34 1015.6
20260902054537 28 92 1.6 1.6 0.00 0.00 0.00 33 1015.6
20260902054036 28 103 3.2 3.2 0.00 0.00 0.00 33 1015.6
20260902053536 28 94 4.8 4.8 0.00 0.00 0.00 34 1015.6
20260902053036 28 85 3.2 3.2 0.00 0.00 0.00 34 1015.6
20260902052536 28 88 6.4 8.0 0.00 0.00 0.00 33 1015.6
20260902052036 28 99 0.0 1.6 0.00 0.00 0.00 33 1015.6
20260902051536 28 51 3.2 3.2 0.00 0.00 0.00 32 1015.2
20260902051036 28 128 0.0 0.0 0.00 0.00 0.00 34 1015.2
20260902050537 28 109 3.2 3.2 0.00 0.00 0.00 34 1015.2
20260902050037 28 75 0.0 0.0 0.00 0.00 0.00 35 1015.2
20260902045537 28 124 0.0 0.0 0.00 0.00 0.00 33 1015.2
20260902045036 28 105 0.0 0.0 0.00 0.00 0.00 33 1015.2
20260902044538 28 54 0.0 0.0 0.00 0.00 0.00 32 1015.2
20260902044036 27 134 0.0 0.0 0.00 0.00 0.00 35 1015.2
20260902043536 27 121 0.0 0.0 0.00 0.00 0.00 35 1015.2
20260902043036 27 356 0.0 0.0 0.00 0.00 0.00 33 1015.2
20260902042537 27 355 0.0 0.0 0.00 0.00 0.00 36 1015.2
20260902042037 26 345 0.0 0.0 0.00 0.00 0.00 36 1014.9
20260902041538 26 318 0.0 0.0 0.00 0.00 0.00 37 1015.2
20260902041039 26 328 0.0 0.0 0.00 0.00 0.00 38 1015.2
20260902040537 26 355 0.0 0.0 0.00 0.00 0.00 39 1014.9
20260902040036 26 268 0.0 0.0 0.00 0.00 0.00 39 1015.2
20260902035536 26 339 0.0 0.0 0.00 0.00 0.00 42 1014.9
20260902035037 25 288 0.0 0.0 0.00 0.00 0.00 42 1014.9
20260902034536 25 257 0.0 0.0 0.00 0.00 0.00 43 1014.9
20260902034037 25 290 0.0 1.6 0.00 0.00 0.00 43 1014.9
20260902033539 25 273 4.8 4.8 0.00 0.00 0.00 44 1014.9
20260902033037 25 283 3.2 4.8 0.00 0.00 0.00 44 1014.9
20260902032536 25 277 1.6 1.6 0.00 0.00 0.00 44 1014.6
20260902032039 25 282 9.7 12.9 0.00 0.00 0.00 44 1014.6
20260902031538 25 280 1.6 3.2 0.00 0.00 0.00 44 1014.9
20260902031036 25 300 0.0 0.0 0.00 0.00 0.00 45 1014.6
20260902030536 25 320 8.0 9.7 0.00 0.00 0.00 45 1014.9
20260902030036 25 237 0.0 0.0 0.00 0.00 0.00 46 1014.9
20260902025538 25 241 0.0 0.0 0.00 0.00 0.00 46 1014.9
20260902025037 25 278 4.8 4.8 0.00 0.00 0.00 47 1014.6
20260902024536 25 285 0.0 0.0 0.00 0.00 0.00 47 1014.9
20260902024036 25 265 0.0 0.0 0.00 0.00 0.00 47 1014.6
20260902023536 25 287 1.6 3.2 0.00 0.00 0.00 46 1014.6
20260902023037 25 332 1.6 1.6 0.00 0.00 0.00 48 1014.6
20260902022536 25 296 3.2 1.6 0.00 0.00 0.00 48 1014.6
20260902022036 25 287 3.2 3.2 0.00 0.00 0.00 47 1014.6
20260902021536 25 300 1.6 1.6 0.00 0.00 0.00 48 1014.6
20260902021039 25 267 3.2 4.8 0.00 0.00 0.00 49 1014.6
20260902020537 25 360 0.0 0.0 0.00 0.00 0.00 49 1014.6
20260902020037 25 287 1.6 1.6 0.00 0.00 0.00 49 1014.6
20260902015537 25 264 6.4 8.0 0.00 0.00 0.00 50 1014.6
20260902015037 25 281 0.0 0.0 0.00 0.00 0.00 50 1014.6
20260902014536 25 58 3.2 3.2 0.00 0.00 0.00 50 1014.6
20260902014036 25 304 0.0 0.0 0.00 0.00 0.00 51 1014.6
20260902013536 25 286 3.2 4.8 0.00 0.00 0.00 50 1014.6
20260902013037 25 311 1.6 3.2 0.00 0.00 0.00 50 1014.6
20260902012536 25 287 4.8 4.8 0.00 0.00 0.00 50 1014.6
20260902012036 25 258 0.0 0.0 0.00 0.00 0.00 51 1014.6
20260902011537 25 275 0.0 0.0 0.00 0.00 0.00 51 1014.6
20260902011036 25 278 0.0 1.6 0.00 0.00 0.00 51 1014.6
20260902010536 25 281 0.0 0.0 0.00 0.00 0.00 51 1014.9
20260902010036 25 284 1.6 1.6 0.00 0.00 0.00 52 1014.6
20260902005537 25 258 1.6 3.2 0.00 0.00 0.00 51 1014.6
20260902005037 25 264 1.6 1.6 0.00 0.00 0.00 51 1014.6
20260902004536 25 295 1.6 0.0 0.00 0.00 0.00 52 1014.6
20260902004040 25 266 3.2 3.2 0.00 0.00 0.00 51 1014.6
20260902003536 25 277 1.6 1.6 0.00 0.00 0.00 51 1014.6
20260902003037 25 249 1.6 3.2 0.00 0.00 0.00 51 1014.6
20260902002537 25 284 4.8 3.2 0.00 0.00 0.00 51 1014.6
20260902002037 25 249 1.6 1.6 0.00 0.00 0.00 50 1014.6
20260902001536 25 257 1.6 1.6 0.00 0.00 0.00 50 1014.6
20260902001036 25 240 3.2 3.2 0.00 0.00 0.00 50 1014.9
20260902000538 25 269 3.2 3.2 0.00 0.00 0.00 50 1014.6
20260902000037 25 270 3.2 3.2 0.00 0.00 0.00 50 1014.9
20260901235536 25 228 0.0 0.0 0.00 0.00 0.00 50 1014.9
20260901235037 25 234 3.2 3.2 0.00 0.00 0.00 49 1014.6
20260901234537 25 269 0.0 0.0 0.00 0.00 0.00 48 1014.9
20260901234037 25 57 0.0 0.0 0.00 0.00 0.00 48 1014.2
20260901233536 25 91 0.0 0.0 0.00 0.00 0.00 49 1014.2
20260901233036 25 92 0.0 0.0 0.00 0.00 0.00 49 1014.6
20260901232536 25 92 0.0 0.0 0.00 0.00 0.00 49 1014.6
20260901232036 25 92 0.0 0.0 0.00 0.00 0.00 49 1014.2
20260901231536 25 91 0.0 0.0 0.00 0.00 0.00 49 1014.2
20260901231036 25 92 0.0 0.0 0.00 0.00 0.00 49 1014.2
20260901230539 25 92 0.0 0.0 0.00 0.00 0.00 48 1014.2
20260901230038 25 92 0.0 0.0 0.00 0.00 0.00 49 1014.2
20260901225538 25 91 0.0 0.0 0.00 0.00 0.00 48 1014.2
20260901225036 25 45 0.0 0.0 0.00 0.00 0.00 46 1014.6
20260901224537 25 41 0.0 0.0 0.00 0.00 0.00 46 1014.2